TimePST,TemperatureF,Dew PointF,Humidity,Sea Level PressureIn,VisibilityMPH,Wind Direction,Wind SpeedMPH,Gust SpeedMPH,PrecipitationIn,Events,Conditions,WindDirDegrees,DateUTC
12:55 AM,46.4,46.4,100,30.09,3.0,NW,9.2,-,N/A,,Overcast,320,2013-01-24 08:55:00
1:45 AM,46.4,46.4,100,30.09,3.0,NW,8.1,-,N/A,,Overcast,310,2013-01-24 09:45:00
2:55 AM,46.4,46.4,100,30.10,3.0,NNW,6.9,-,N/A,,Overcast,340,2013-01-24 10:55:00
5:50 AM,46.4,46.4,100,30.11,3.0,NNW,4.6,-,N/A,,Overcast,330,2013-01-24 13:50:00
6:46 AM,46.4,46.4,100,30.12,3.0,North,6.9,-,N/A,,Overcast,360,2013-01-24 14:46:00
7:46 AM,46.4,46.4,100,30.13,3.0,North,9.2,-,N/A,,Overcast,10,2013-01-24 15:46:00
8:45 AM,46.4,46.4,100,30.12,3.0,North,8.1,-,N/A,,Mostly Cloudy,350,2013-01-24 16:45:00
8:52 AM,26.6,6.8,43,30.58,20.0,ENE,13.8,-,N/A,,Mostly Cloudy,70,2013-01-24 16:52:00
9:37 AM,48.2,48.2,100,30.15,2.5,WNW,6.9,-,N/A,,Mostly Cloudy,300,2013-01-24 17:37:00
9:50 AM,48.2,48.2,100,30.15,3.0,West,5.8,-,N/A,,Overcast,280,2013-01-24 17:50:00
10:12 AM,48.2,48.2,100,30.17,3.0,West,4.6,-,N/A,,Mostly Cloudy,280,2013-01-24 18:12:00
10:46 AM,50.0,48.2,94,30.18,3.0,Calm,Calm,-,N/A,,Overcast,0,2013-01-24 18:46:00
11:45 AM,51.8,48.2,88,30.18,4.0,Calm,Calm,-,N/A,,Overcast,0,2013-01-24 19:45:00
12:45 PM,50.0,48.2,94,30.16,3.0,East,5.8,-,N/A,,Overcast,90,2013-01-24 20:45:00
1:48 PM,50.0,50.0,100,30.15,1.8,East,3.5,-,N/A,,Overcast,90,2013-01-24 21:48:00
2:45 PM,50.0,50.0,100,30.15,2.5,Calm,Calm,-,N/A,,Overcast,0,2013-01-24 22:45:00
4:45 PM,51.8,50.0,94,30.16,3.0,Calm,Calm,-,N/A,,Overcast,0,2013-01-25 00:45:00
5:45 PM,50.0,50.0,100,30.16,3.0,Calm,Calm,-,N/A,,Overcast,0,2013-01-25 01:45:00
6:45 PM,50.0,50.0,100,30.18,3.0,Calm,Calm,-,N/A,,Overcast,0,2013-01-25 02:45:00
8:45 PM,51.8,51.8,100,30.19,3.0,Calm,Calm,-,N/A,,Overcast,0,2013-01-25 04:45:00
9:45 PM,51.8,51.8,100,30.20,3.0,Calm,Calm,-,N/A,,Overcast,0,2013-01-25 05:45:00
10:45 PM,51.8,51.8,100,30.20,3.0,Calm,Calm,-,N/A,,Overcast,0,2013-01-25 06:45:00